| time (UTC) | temp F | wind direction | speed MPH | gust MPH | rain 1hr in | rain 24hr in | rain mn in | humidity % | barometer mb |
| 20260902113101 | 56 | 98 | 0.0 | 3.0 | 0.00 | 0.00 | 0.00 | 80 | 938.6 |
| 20260902111601 | 57 | 88 | 0.0 | 0.0 | 0.00 | 0.00 | 0.00 | 77 | 938.7 |
| 20260902104605 | 59 | 88 | 0.0 | 1.0 | 0.00 | 0.00 | 0.00 | 73 | 938.8 |
| 20260902103105 | 59 | 88 | 0.0 | 1.0 | 0.00 | 0.00 | 0.00 | 72 | 938.8 |
| 20260902101556 | 60 | 88 | 0.0 | 1.0 | 0.00 | 0.00 | 0.00 | 72 | 938.8 |
| 20260902100048 | 60 | 88 | 0.0 | 2.0 | 0.00 | 0.00 | 0.00 | 70 | 938.9 |
| 20260902094547 | 60 | 80 | 0.0 | 1.0 | 0.00 | 0.00 | 0.00 | 70 | 938.8 |
| 20260902093047 | 60 | 79 | 0.0 | 1.0 | 0.00 | 0.00 | 0.00 | 70 | 938.8 |
| 20260902091549 | 60 | 79 | 0.0 | 2.0 | 0.00 | 0.00 | 0.00 | 71 | 938.8 |
| 20260902090045 | 60 | 74 | 0.0 | 1.0 | 0.00 | 0.00 | 0.00 | 71 | 938.9 |
| 20260902084544 | 60 | 74 | 0.0 | 1.0 | 0.00 | 0.00 | 0.00 | 70 | 938.9 |
| 20260902083051 | 60 | 74 | 0.0 | 1.0 | 0.00 | 0.00 | 0.00 | 71 | 938.9 |
| 20260902081542 | 60 | 74 | 0.0 | 0.0 | 0.00 | 0.00 | 0.00 | 71 | 938.9 |
| 20260902080042 | 60 | 74 | 0.0 | 1.0 | 0.00 | 0.00 | 0.00 | 71 | 938.9 |
| 20260902074541 | 59 | 74 | 0.0 | 0.0 | 0.00 | 0.00 | 0.00 | 71 | 939.0 |
| 20260902073040 | 60 | 74 | 0.0 | 0.0 | 0.00 | 0.00 | 0.00 | 70 | 939.1 |
| 20260902071536 | 60 | 74 | 0.0 | 0.0 | 0.00 | 0.00 | 0.00 | 68 | 939.0 |
| 20260902070035 | 61 | 74 | 0.0 | 1.0 | 0.00 | 0.00 | 0.00 | 68 | 938.9 |
| 20260902064535 | 60 | 72 | 0.0 | 0.0 | 0.00 | 0.00 | 0.00 | 67 | 938.9 |
| 20260902063050 | 61 | 72 | 0.0 | 1.0 | 0.00 | 0.00 | 0.00 | 66 | 939.1 |
| 20260902061550 | 61 | 72 | 0.0 | 1.0 | 0.00 | 0.00 | 0.00 | 65 | 939.1 |
| 20260902060038 | 62 | 72 | 0.0 | 1.0 | 0.00 | 0.00 | 0.00 | 64 | 939.1 |
| 20260902054531 | 62 | 72 | 0.0 | 1.0 | 0.00 | 0.00 | 0.00 | 62 | 939.1 |
| 20260902053034 | 63 | 72 | 0.0 | 1.0 | 0.00 | 0.00 | 0.00 | 60 | 939.1 |
| 20260902051529 | 64 | 71 | 0.0 | 2.0 | 0.00 | 0.00 | 0.00 | 58 | 939.2 |
| 20260902050029 | 65 | 68 | 0.0 | 2.0 | 0.00 | 0.00 | 0.00 | 56 | 939.2 |
| 20260902044555 | 65 | 71 | 0.0 | 3.0 | 0.00 | 0.00 | 0.00 | 54 | 939.2 |
| 20260902043024 | 66 | 69 | 0.0 | 3.0 | 0.00 | 0.00 | 0.00 | 53 | 939.2 |
| 20260902041532 | 65 | 71 | 0.0 | 3.0 | 0.00 | 0.00 | 0.00 | 53 | 939.2 |
| 20260902040022 | 65 | 55 | 0.0 | 2.0 | 0.00 | 0.00 | 0.00 | 52 | 939.3 |
| 20260902034523 | 65 | 62 | 0.0 | 3.0 | 0.00 | 0.00 | 0.00 | 52 | 939.3 |
| 20260902033022 | 66 | 75 | 0.0 | 3.0 | 0.00 | 0.00 | 0.00 | 52 | 939.3 |
| 20260902031539 | 66 | 68 | 0.0 | 2.0 | 0.00 | 0.00 | 0.00 | 52 | 939.3 |
| 20260902030021 | 66 | 67 | 0.0 | 3.0 | 0.00 | 0.00 | 0.00 | 53 | 939.3 |
| 20260902024521 | 66 | 78 | 0.0 | 2.0 | 0.00 | 0.00 | 0.00 | 54 | 939.2 |
| 20260902023028 | 67 | 84 | 0.0 | 2.0 | 0.00 | 0.00 | 0.00 | 51 | 939.1 |
| 20260902021519 | 69 | 86 | 0.0 | 1.0 | 0.00 | 0.00 | 0.00 | 49 | 939.1 |
| 20260902020023 | 70 | 88 | 0.0 | 2.0 | 0.00 | 0.00 | 0.00 | 46 | 939.0 |
| 20260902014517 | 72 | 92 | 0.0 | 1.0 | 0.00 | 0.00 | 0.00 | 44 | 938.9 |
| 20260902013017 | 74 | 103 | 0.0 | 3.0 | 0.00 | 0.00 | 0.00 | 41 | 939.0 |
| 20260902011520 | 76 | 95 | 0.0 | 1.0 | 0.00 | 0.00 | 0.00 | 38 | 939.0 |
| 20260902010015 | 77 | 96 | 0.0 | 2.0 | 0.00 | 0.00 | 0.00 | 36 | 939.1 |
| 20260902004514 | 79 | 96 | 0.0 | 2.0 | 0.00 | 0.00 | 0.00 | 34 | 939.2 |
| 20260902003014 | 80 | 97 | 0.0 | 2.0 | 0.00 | 0.00 | 0.00 | 33 | 939.2 |
| 20260902001513 | 80 | 97 | 0.0 | 2.0 | 0.00 | 0.00 | 0.00 | 33 | 939.1 |
| 20260902000012 | 81 | 98 | 1.0 | 4.0 | 0.00 | 0.00 | 0.00 | 31 | 939.2 |
| 20260901234511 | 81 | 101 | 2.0 | 6.0 | 0.00 | 0.00 | 0.00 | 31 | 939.3 |
| 20260901233012 | 80 | 104 | 0.0 | 4.0 | 0.00 | 0.00 | 0.00 | 32 | 939.4 |
| 20260901231508 | 81 | 117 | 0.0 | 8.0 | 0.00 | 0.00 | 0.00 | 32 | 939.5 |
| 20260901230008 | 82 | 110 | 1.0 | 6.0 | 0.00 | 0.00 | 0.00 | 31 | 939.5 |
| 20260901224511 | 83 | 102 | 2.0 | 6.0 | 0.00 | 0.00 | 0.00 | 30 | 939.5 |
| 20260901223006 | 82 | 106 | 2.0 | 6.0 | 0.00 | 0.00 | 0.00 | 31 | 939.7 |
| 20260901221504 | 82 | 104 | 1.0 | 6.0 | 0.00 | 0.00 | 0.00 | 29 | 939.8 |
| 20260901220002 | 82 | 103 | 1.0 | 4.0 | 0.00 | 0.00 | 0.00 | 30 | 940.0 |
| 20260901214501 | 82 | 106 | 1.0 | 4.0 | 0.00 | 0.00 | 0.00 | 30 | 940.0 |
| 20260901213001 | 82 | 105 | 1.0 | 6.0 | 0.00 | 0.00 | 0.00 | 30 | 940.1 |
| 20260901211559 | 82 | 115 | 1.0 | 4.0 | 0.00 | 0.00 | 0.00 | 30 | 940.3 |
| 20260901210057 | 82 | 117 | 0.0 | 4.0 | 0.00 | 0.00 | 0.00 | 30 | 940.4 |
| 20260901204555 | 82 | 117 | 1.0 | 4.0 | 0.00 | 0.00 | 0.00 | 30 | 940.6 |
| 20260901203057 | 82 | 128 | 1.0 | 7.0 | 0.00 | 0.00 | 0.00 | 30 | 940.6 |
| 20260901201553 | 83 | 134 | 1.0 | 4.0 | 0.00 | 0.00 | 0.00 | 29 | 940.8 |
| 20260901200150 | 83 | 133 | 1.0 | 5.0 | 0.00 | 0.00 | 0.00 | 30 | 940.9 |
| 20260901194549 | 82 | 122 | 1.0 | 4.0 | 0.00 | 0.00 | 0.00 | 31 | 941.0 |
| 20260901193046 | 81 | 121 | 0.0 | 6.0 | 0.00 | 0.00 | 0.00 | 31 | 941.2 |
| 20260901191545 | 81 | 115 | 1.0 | 3.0 | 0.00 | 0.00 | 0.00 | 33 | 941.3 |
| 20260901190042 | 80 | 115 | 0.0 | 4.0 | 0.00 | 0.00 | 0.00 | 34 | 941.5 |
| 20260901184540 | 80 | 119 | 0.0 | 3.0 | 0.00 | 0.00 | 0.00 | 33 | 941.7 |
| 20260901183059 | 79 | 130 | 0.0 | 2.0 | 0.00 | 0.00 | 0.00 | 34 | 941.8 |
| 20260901181537 | 79 | 131 | 0.0 | 3.0 | 0.00 | 0.00 | 0.00 | 34 | 941.9 |
| 20260901180036 | 79 | 150 | 0.0 | 2.0 | 0.00 | 0.00 | 0.00 | 35 | 941.9 |
| 20260901174533 | 78 | 170 | 0.0 | 2.0 | 0.00 | 0.00 | 0.00 | 37 | 942.0 |
| 20260901173031 | 76 | 171 | 0.0 | 1.0 | 0.00 | 0.00 | 0.00 | 38 | 942.3 |
| 20260901171545 | 77 | 184 | 0.0 | 1.0 | 0.00 | 0.00 | 0.00 | 39 | 942.2 |
| 20260901170041 | 76 | 190 | 0.0 | 3.0 | 0.00 | 0.00 | 0.00 | 44 | 942.4 |
| 20260901164522 | 74 | 200 | 0.0 | 1.0 | 0.00 | 0.00 | 0.00 | 47 | 942.5 |
| 20260901163020 | 71 | 207 | 0.0 | 2.0 | 0.00 | 0.00 | 0.00 | 53 | 942.5 |
| 20260901161513 | 68 | 246 | 0.0 | 0.0 | 0.00 | 0.00 | 0.00 | 58 | 942.6 |
| 20260901160011 | 66 | 246 | 0.0 | 1.0 | 0.00 | 0.00 | 0.00 | 60 | 942.7 |
| 20260901154504 | 64 | 246 | 0.0 | 0.0 | 0.00 | 0.00 | 0.00 | 62 | 942.6 |
| 20260901153101 | 62 | 246 | 0.0 | 0.0 | 0.00 | 0.00 | 0.00 | 64 | 942.6 |
| 20260901151600 | 62 | 246 | 0.0 | 0.0 | 0.00 | 0.00 | 0.00 | 66 | 942.6 |
| 20260901150055 | 60 | 246 | 0.0 | 0.0 | 0.00 | 0.00 | 0.00 | 70 | 942.7 |
| 20260901144548 | 59 | 246 | 0.0 | 2.0 | 0.00 | 0.00 | 0.00 | 72 | 942.8 |
| 20260901143047 | 57 | 290 | 0.0 | 1.0 | 0.00 | 0.00 | 0.00 | 79 | 942.8 |
| 20260901141544 | 54 | 290 | 0.0 | 0.0 | 0.00 | 0.00 | 0.00 | 85 | 942.7 |
| 20260901140034 | 51 | 290 | 0.0 | 0.0 | 0.00 | 0.00 | 0.00 | 91 | 942.8 |
| 20260901134534 | 50 | 290 | 0.0 | 1.0 | 0.00 | 0.00 | 0.00 | 93 | 942.8 |
| 20260901133038 | 48 | 290 | 0.0 | 0.0 | 0.00 | 0.00 | 0.00 | 94 | 942.7 |
| 20260901131539 | 46 | 290 | 0.0 | 0.0 | 0.00 | 0.00 | 0.00 | 95 | 942.8 |
| 20260901130032 | 44 | 290 | 0.0 | 0.0 | 0.00 | 0.00 | 0.00 | 94 | 942.8 |
| 20260901124531 | 44 | 290 | 0.0 | 0.0 | 0.00 | 0.00 | 0.00 | 93 | 942.8 |
| 20260901123036 | 44 | 290 | 0.0 | 0.0 | 0.00 | 0.00 | 0.00 | 92 | 942.6 |
| 20260901121525 | 44 | 290 | 0.0 | 0.0 | 0.00 | 0.00 | 0.00 | 92 | 942.5 |
| 20260901120024 | 44 | 290 | 0.0 | 1.0 | 0.00 | 0.00 | 0.00 | 92 | 942.4 |
| 20260901114526 | 44 | 290 | 0.0 | 0.0 | 0.00 | 0.00 | 0.00 | 92 | 942.3 |